Location: Lourdes
(43.1000°N, 0.0500°W)
Time: 05:30:04
(UTC+00:00)

SL-24 DEB - Pass Details

Date: 30 November 2020
Orbit: 664 x 701 km, 92.0° (Epoch: 27 January)

Event Time Altitude Azimuth Distance (km) Brightness Sun altitude
Rises 18:07:05 0° 5° (N) 3,085 7.4 -17.9°
Reaches altitude 10° 18:09:22 10° 7° (N) 2,159 6.6 -18.3°
Maximum altitude 18:14:08 80° 95° (E) 705 4.1 -19.1°
Drops below altitude 10° 18:18:49 10° 182° (S) 2,120 6.9 -20.0°
Sets 18:21:03 0° 183° (S) 3,024 7.8 -20.4°
